| time (UTC) | temp C | wind direction | speed KPH | gust KPH | rain 1hr cm | rain 24hr cm | rain mn cm | humidity % | barometer mb |
| 20260505062131 | 9 | 29 | 20.9 | 29.0 | 0.00 | 0.00 | 0.00 | 98 | 1011.2 |
| 20260505061631 | 9 | 25 | 16.1 | 29.0 | 0.00 | 0.00 | 0.00 | 98 | 1011.2 |
| 20260505061132 | 9 | 37 | 14.5 | 24.1 | 0.00 | 0.00 | 0.00 | 99 | 1011.4 |
| 20260505060631 | 9 | 34 | 17.7 | 24.1 | 0.00 | 0.00 | 0.00 | 99 | 1011.5 |
| 20260505060417 | 9 | 28 | 19.3 | 24.1 | 0.00 | 0.00 | 0.00 | 98 | 1011.4 |
| 20260505055631 | 9 | 12 | 19.3 | 25.7 | 0.00 | 0.00 | 0.00 | 99 | 1011.3 |
| 20260505055131 | 9 | 24 | 20.9 | 29.0 | 0.00 | 0.00 | 0.00 | 99 | 1011.3 |
| 20260505054631 | 9 | 13 | 20.9 | 29.0 | 0.00 | 0.00 | 0.00 | 98 | 1011.4 |
| 20260505054132 | 9 | 31 | 19.3 | 30.6 | 0.00 | 0.00 | 0.00 | 98 | 1011.4 |
| 20260505053905 | 9 | 20 | 19.3 | 30.6 | 0.00 | 0.00 | 0.00 | 99 | 1011.5 |
| 20260505053147 | 9 | 18 | 19.3 | 27.4 | 0.00 | 0.00 | 0.00 | 99 | 1011.1 |
| 20260505053142 | 9 | 23 | 17.7 | 27.4 | 0.00 | 0.00 | 0.00 | 98 | 1011.2 |
| 20260505052131 | 9 | 8 | 17.7 | 25.7 | 0.00 | 0.00 | 0.00 | 98 | 1011.0 |
| 20260505051902 | 9 | 14 | 19.3 | 27.4 | 0.00 | 0.00 | 0.00 | 99 | 1011.1 |
| 20260505051407 | 9 | 16 | 20.9 | 30.6 | 0.00 | 0.00 | 0.00 | 98 | 1010.9 |
| 20260505050631 | 9 | 12 | 19.3 | 30.6 | 0.00 | 0.00 | 0.00 | 98 | 1010.9 |
| 20260505050131 | 9 | 18 | 19.3 | 32.2 | 0.00 | 0.00 | 0.00 | 99 | 1011.0 |
| 20260505041128 | 9 | 16 | 20.9 | 29.0 | 0.00 | 0.00 | 0.00 | 97 | 1010.9 |
| 20260505040629 | 9 | 13 | 17.7 | 24.1 | 0.00 | 0.00 | 0.00 | 97 | 1010.9 |
| 20260505040129 | 10 | 20 | 17.7 | 24.1 | 0.00 | 0.00 | 0.00 | 97 | 1011.0 |
| 20260505035629 | 10 | 2 | 19.3 | 25.7 | 0.00 | 0.00 | 0.00 | 96 | 1010.9 |
| 20260505035129 | 10 | 12 | 19.3 | 25.7 | 0.00 | 0.00 | 0.00 | 96 | 1010.8 |
| 20260505034914 | 10 | 11 | 19.3 | 25.7 | 0.00 | 0.00 | 0.00 | 97 | 1010.9 |
| 20260505034129 | 10 | 7 | 17.7 | 24.1 | 0.00 | 0.00 | 0.00 | 97 | 1010.9 |
| 20260505033628 | 10 | 14 | 19.3 | 29.0 | 0.00 | 0.00 | 0.00 | 97 | 1011.0 |
| 20260505033404 | 10 | 350 | 20.9 | 29.0 | 0.00 | 0.00 | 0.00 | 97 | 1011.0 |
| 20260505032629 | 10 | 12 | 22.5 | 32.2 | 0.00 | 0.00 | 0.00 | 97 | 1011.1 |
| 20260505032129 | 10 | 5 | 22.5 | 32.2 | 0.00 | 0.00 | 0.00 | 96 | 1011.2 |
| 20260505031629 | 10 | 2 | 20.9 | 30.6 | 0.00 | 0.00 | 0.00 | 97 | 1010.9 |
| 20260505031129 | 10 | 1 | 17.7 | 25.7 | 0.00 | 0.00 | 0.00 | 96 | 1010.9 |
| 20260505030627 | 10 | 357 | 17.7 | 27.4 | 0.00 | 0.00 | 0.00 | 96 | 1011.0 |
| 20260505030133 | 10 | 3 | 17.7 | 27.4 | 0.00 | 0.00 | 0.00 | 96 | 1010.9 |
| 20260505025632 | 10 | 10 | 19.3 | 25.7 | 0.00 | 0.00 | 0.00 | 95 | 1010.9 |
| 20260505025128 | 10 | 7 | 17.7 | 24.1 | 0.00 | 0.00 | 0.00 | 95 | 1011.0 |
| 20260505024627 | 10 | 11 | 17.7 | 24.1 | 0.00 | 0.00 | 0.00 | 95 | 1011.1 |
| 20260505024407 | 10 | 0 | 17.7 | 27.4 | 0.00 | 0.00 | 0.00 | 95 | 1011.1 |
| 20260505023624 | 10 | 6 | 17.7 | 27.4 | 0.00 | 0.00 | 0.00 | 95 | 1011.1 |
| 20260505023356 | 10 | 8 | 19.3 | 25.7 | 0.00 | 0.00 | 0.00 | 95 | 1011.2 |
| 20260505022625 | 10 | 7 | 19.3 | 27.4 | 0.00 | 0.00 | 0.00 | 94 | 1011.2 |
| 20260505022355 | 10 | 3 | 20.9 | 29.0 | 0.00 | 0.00 | 0.00 | 94 | 1011.2 |
| 20260505021621 | 10 | 9 | 20.9 | 33.8 | 0.00 | 0.00 | 0.00 | 94 | 1011.2 |
| 20260505021122 | 10 | 1 | 22.5 | 33.8 | 0.00 | 0.00 | 0.00 | 94 | 1011.0 |
| 20260505020852 | 10 | 4 | 22.5 | 33.8 | 0.00 | 0.00 | 0.00 | 94 | 1011.0 |
| 20260505020119 | 10 | 354 | 20.9 | 30.6 | 0.00 | 0.00 | 0.00 | 94 | 1011.1 |
| 20260505015619 | 10 | 359 | 20.9 | 29.0 | 0.00 | 0.00 | 0.00 | 94 | 1010.9 |
| 20260505015119 | 10 | 13 | 19.3 | 27.4 | 0.00 | 0.00 | 0.00 | 95 | 1011.1 |
| 20260505014619 | 10 | 359 | 20.9 | 30.6 | 0.00 | 0.00 | 0.00 | 95 | 1011.3 |
| 20260505014119 | 10 | 3 | 22.5 | 32.2 | 0.00 | 0.00 | 0.00 | 94 | 1011.2 |
| 20260505013619 | 10 | 6 | 22.5 | 33.8 | 0.00 | 0.00 | 0.00 | 93 | 1011.3 |
| 20260505013119 | 10 | 14 | 22.5 | 33.8 | 0.00 | 0.00 | 0.00 | 94 | 1011.2 |
| 20260505012618 | 10 | 5 | 19.3 | 29.0 | 0.00 | 0.00 | 0.00 | 95 | 1011.4 |
| 20260505012402 | 10 | 1 | 19.3 | 30.6 | 0.00 | 0.00 | 0.00 | 94 | 1011.4 |
| 20260505011619 | 10 | 338 | 19.3 | 30.6 | 0.00 | 0.00 | 0.00 | 94 | 1011.3 |
| 20260505011119 | 10 | 328 | 17.7 | 29.0 | 0.00 | 0.00 | 0.00 | 94 | 1011.3 |
| 20260505010619 | 10 | 2 | 17.7 | 27.4 | 0.00 | 0.00 | 0.00 | 94 | 1011.5 |
| 20260505010123 | 10 | 10 | 20.9 | 32.2 | 0.00 | 0.00 | 0.00 | 94 | 1011.4 |
| 20260505005620 | 10 | 351 | 22.5 | 32.2 | 0.00 | 0.00 | 0.00 | 94 | 1011.6 |
| 20260505005119 | 10 | 5 | 20.9 | 29.0 | 0.00 | 0.00 | 0.00 | 94 | 1011.5 |
| 20260505004619 | 10 | 351 | 20.9 | 32.2 | 0.00 | 0.00 | 0.00 | 94 | 1011.7 |
| 20260505004119 | 10 | 341 | 20.9 | 32.2 | 0.00 | 0.00 | 0.00 | 94 | 1011.6 |
| 20260505003620 | 10 | 3 | 17.7 | 27.4 | 0.00 | 0.00 | 0.00 | 94 | 1011.6 |
| 20260505003120 | 11 | 327 | 16.1 | 24.1 | 0.00 | 0.00 | 0.00 | 94 | 1011.5 |
| 20260505002632 | 11 | 10 | 16.1 | 32.2 | 0.00 | 0.00 | 0.00 | 95 | 1011.8 |
| 20260505002628 | 11 | 27 | 16.1 | 24.1 | 0.00 | 0.00 | 0.00 | 94 | 1011.7 |
| 20260505001620 | 11 | 2 | 17.7 | 32.2 | 0.00 | 0.00 | 0.00 | 94 | 1011.8 |
| 20260505001119 | 11 | 23 | 17.7 | 32.2 | 0.00 | 0.00 | 0.00 | 94 | 1011.7 |
| 20260505000620 | 11 | 347 | 16.1 | 40.2 | 0.00 | 0.00 | 0.00 | 94 | 1011.7 |
| 20260505000120 | 11 | 355 | 20.9 | 40.2 | 0.00 | 0.00 | 0.00 | 94 | 1011.8 |
| 20260504235617 | 11 | 17 | 20.9 | 40.2 | 0.00 | 0.00 | 0.00 | 92 | 1011.6 |
| 20260504235115 | 11 | 356 | 19.3 | 33.8 | 0.00 | 0.00 | 0.00 | 95 | 1011.8 |
| 20260504234615 | 11 | 3 | 22.5 | 33.8 | 0.00 | 0.00 | 0.00 | 94 | 1011.7 |
| 20260504234115 | 11 | 4 | 17.7 | 27.4 | 0.00 | 0.00 | 0.00 | 94 | 1011.9 |
| 20260504233614 | 11 | 357 | 16.1 | 25.7 | 0.00 | 0.00 | 0.00 | 94 | 1012.0 |
| 20260504233115 | 11 | 346 | 16.1 | 24.1 | 0.00 | 0.00 | 0.00 | 94 | 1012.0 |
| 20260504232615 | 11 | 357 | 17.7 | 30.6 | 0.00 | 0.00 | 0.00 | 94 | 1012.1 |
| 20260504232114 | 11 | 359 | 17.7 | 30.6 | 0.00 | 0.00 | 0.00 | 93 | 1012.1 |
| 20260504231615 | 11 | 345 | 16.1 | 27.4 | 0.00 | 0.00 | 0.00 | 93 | 1012.2 |
| 20260504231115 | 11 | 3 | 16.1 | 27.4 | 0.00 | 0.00 | 0.00 | 94 | 1012.1 |
| 20260504230615 | 11 | 348 | 16.1 | 27.4 | 0.00 | 0.00 | 0.00 | 94 | 1012.1 |
| 20260504230115 | 11 | 10 | 14.5 | 29.0 | 0.00 | 0.00 | 0.00 | 94 | 1012.2 |
| 20260504225615 | 11 | 353 | 14.5 | 29.0 | 0.00 | 0.00 | 0.00 | 94 | 1012.1 |
| 20260504225115 | 11 | 359 | 16.1 | 29.0 | 0.00 | 0.00 | 0.00 | 94 | 1012.0 |
| 20260504224613 | 11 | 351 | 16.1 | 29.0 | 0.00 | 0.00 | 0.00 | 93 | 1012.2 |
| 20260504224113 | 12 | 324 | 16.1 | 27.4 | 0.00 | 0.00 | 0.00 | 94 | 1012.1 |
| 20260504223612 | 12 | 343 | 16.1 | 27.4 | 0.00 | 0.00 | 0.00 | 93 | 1012.2 |
| 20260504223113 | 12 | 7 | 17.7 | 30.6 | 0.00 | 0.00 | 0.00 | 94 | 1012.1 |
| 20260504222613 | 12 | 317 | 17.7 | 30.6 | 0.00 | 0.00 | 0.00 | 94 | 1012.1 |
| 20260504222112 | 12 | 303 | 20.9 | 32.2 | 0.00 | 0.00 | 0.00 | 94 | 1012.2 |
| 20260504221613 | 12 | 9 | 22.5 | 32.2 | 0.00 | 0.00 | 0.00 | 93 | 1012.1 |
| 20260504221113 | 12 | 0 | 22.5 | 32.2 | 0.00 | 0.00 | 0.00 | 93 | 1012.1 |
| 20260504220614 | 12 | 4 | 20.9 | 30.6 | 0.00 | 0.00 | 0.00 | 93 | 1012.1 |
| 20260504220113 | 12 | 3 | 19.3 | 27.4 | 0.00 | 0.00 | 0.00 | 93 | 1012.3 |
| 20260504215613 | 12 | 16 | 19.3 | 27.4 | 0.00 | 0.00 | 0.00 | 93 | 1012.3 |
| 20260504215114 | 12 | 9 | 19.3 | 29.0 | 0.00 | 0.00 | 0.00 | 92 | 1012.3 |
| 20260504214613 | 12 | 6 | 19.3 | 29.0 | 0.00 | 0.00 | 0.00 | 93 | 1012.4 |
| 20260504214344 | 12 | 1 | 19.3 | 29.0 | 0.00 | 0.00 | 0.00 | 93 | 1012.5 |
| 20260504213610 | 12 | 30 | 17.7 | 29.0 | 0.00 | 0.00 | 0.00 | 93 | 1012.4 |
| 20260504213110 | 12 | 4 | 17.7 | 32.2 | 0.00 | 0.00 | 0.00 | 93 | 1012.5 |
| 20260504212610 | 12 | 5 | 19.3 | 32.2 | 0.00 | 0.00 | 0.00 | 92 | 1012.4 |
| 20260504212110 | 12 | 2 | 19.3 | 30.6 | 0.00 | 0.00 | 0.00 | 93 | 1012.6 |
| 20260504211612 | 12 | 5 | 17.7 | 30.6 | 0.00 | 0.00 | 0.00 | 92 | 1012.5 |
| 20260504211348 | 12 | 346 | 16.1 | 22.5 | 0.00 | 0.00 | 0.00 | 93 | 1012.5 |
| 20260504210611 | 12 | 351 | 16.1 | 25.7 | 0.00 | 0.00 | 0.00 | 94 | 1012.6 |
| 20260504210112 | 12 | 342 | 17.7 | 25.7 | 0.00 | 0.00 | 0.00 | 94 | 1012.7 |
| 20260504205611 | 12 | 3 | 17.7 | 27.4 | 0.00 | 0.00 | 0.00 | 94 | 1012.6 |
| 20260504205115 | 12 | 1 | 17.7 | 29.0 | 0.00 | 0.00 | 0.00 | 94 | 1012.6 |
| 20260504204847 | 12 | 0 | 17.7 | 29.0 | 0.00 | 0.00 | 0.00 | 94 | 1012.5 |
| 20260504204111 | 12 | 355 | 17.7 | 27.4 | 0.00 | 0.00 | 0.00 | 94 | 1012.6 |
| 20260504203611 | 12 | 2 | 17.7 | 25.7 | 0.00 | 0.00 | 0.00 | 94 | 1012.6 |
| 20260504203108 | 12 | 8 | 17.7 | 27.4 | 0.00 | 0.00 | 0.00 | 94 | 1012.6 |
| 20260504202609 | 12 | 1 | 17.7 | 27.4 | 0.00 | 0.00 | 0.00 | 93 | 1012.6 |
| 20260504202109 | 12 | 353 | 16.1 | 22.5 | 0.00 | 0.00 | 0.00 | 94 | 1012.5 |
| 20260504201609 | 12 | 5 | 16.1 | 27.4 | 0.00 | 0.00 | 0.00 | 93 | 1012.4 |
| 20260504201345 | 12 | 7 | 17.7 | 27.4 | 0.00 | 0.00 | 0.00 | 93 | 1012.4 |
| 20260504200609 | 13 | 11 | 17.7 | 27.4 | 0.00 | 0.00 | 0.00 | 92 | 1012.2 |
| 20260504200343 | 13 | 14 | 16.1 | 25.7 | 0.00 | 0.00 | 0.00 | 92 | 1012.3 |
| 20260504195609 | 13 | 16 | 16.1 | 24.1 | 0.00 | 0.00 | 0.00 | 93 | 1012.3 |
| 20260504195110 | 13 | 13 | 16.1 | 24.1 | 0.00 | 0.00 | 0.00 | 93 | 1012.3 |
| 20260504194609 | 13 | 1 | 17.7 | 29.0 | 0.00 | 0.00 | 0.00 | 93 | 1012.2 |
| 20260504194109 | 13 | 2 | 19.3 | 29.0 | 0.00 | 0.00 | 0.00 | 93 | 1012.2 |
| 20260504193609 | 13 | 12 | 20.9 | 25.7 | 0.00 | 0.00 | 0.00 | 93 | 1012.2 |
| 20260504193106 | 13 | 2 | 20.9 | 25.7 | 0.00 | 0.00 | 0.00 | 92 | 1012.2 |
| 20260504192611 | 13 | 3 | 19.3 | 25.7 | 0.00 | 0.00 | 0.00 | 92 | 1012.0 |
| 20260504192107 | 13 | 0 | 17.7 | 25.7 | 0.00 | 0.00 | 0.00 | 93 | 1012.0 |
| 20260504191608 | 13 | 6 | 19.3 | 30.6 | 0.00 | 0.00 | 0.00 | 93 | 1012.1 |
| 20260504191107 | 13 | 8 | 20.9 | 30.6 | 0.00 | 0.00 | 0.00 | 93 | 1012.1 |
| 20260504190608 | 13 | 10 | 20.9 | 27.4 | 0.00 | 0.00 | 0.00 | 92 | 1011.9 |
| 20260504190107 | 13 | 6 | 20.9 | 29.0 | 0.00 | 0.00 | 0.00 | 92 | 1011.9 |
| 20260504185614 | 13 | 359 | 24.1 | 32.2 | 0.00 | 0.00 | 0.00 | 92 | 1011.8 |
| 20260504185610 | 13 | 358 | 24.1 | 32.2 | 0.00 | 0.00 | 0.00 | 91 | 1012.0 |
| 20260504184608 | 13 | 5 | 20.9 | 29.0 | 0.00 | 0.00 | 0.00 | 91 | 1011.8 |
| 20260504184108 | 13 | 1 | 16.1 | 25.7 | 0.00 | 0.00 | 0.00 | 92 | 1011.8 |
| 20260504183602 | 13 | 14 | 17.7 | 27.4 | 0.00 | 0.00 | 0.00 | 93 | 1012.0 |
| 20260504183105 | 13 | 2 | 19.3 | 27.4 | 0.00 | 0.00 | 0.00 | 92 | 1011.9 |
| 20260504182604 | 13 | 16 | 17.7 | 24.1 | 0.00 | 0.00 | 0.00 | 92 | 1011.9 |
| 20260504182104 | 13 | 359 | 19.3 | 30.6 | 0.00 | 0.03 | 0.00 | 92 | 1012.0 |
| 20260504181603 | 14 | 10 | 20.9 | 30.6 | 0.00 | 0.08 | 0.00 | 92 | 1012.0 |
| 20260504181347 | 14 | 6 | 20.9 | 30.6 | 0.00 | 0.08 | 0.00 | 91 | 1011.9 |
| 20260504180603 | 14 | 7 | 20.9 | 30.6 | 0.00 | 0.08 | 0.00 | 91 | 1011.8 |
| 20260504180337 | 14 | 9 | 20.9 | 33.8 | 0.00 | 0.08 | 0.00 | 92 | 1011.7 |
| 20260504175603 | 14 | 11 | 20.9 | 33.8 | 0.00 | 0.08 | 0.00 | 92 | 1011.9 |
| 20260504175102 | 14 | 11 | 20.9 | 30.6 | 0.00 | 0.08 | 0.00 | 91 | 1011.8 |
| 20260504174603 | 15 | 7 | 19.3 | 30.6 | 0.00 | 0.08 | 0.00 | 92 | 1011.8 |
| 20260504174103 | 15 | 6 | 17.7 | 27.4 | 0.00 | 0.08 | 0.00 | 92 | 1011.8 |
| 20260504173848 | 15 | 359 | 16.1 | 24.1 | 0.00 | 0.08 | 0.00 | 90 | 1011.8 |
| 20260504173103 | 15 | 351 | 16.1 | 25.7 | 0.00 | 0.08 | 0.00 | 90 | 1011.8 |
| 20260504172603 | 15 | 358 | 17.7 | 27.4 | 0.00 | 0.08 | 0.00 | 90 | 1011.8 |
| 20260504172103 | 15 | 358 | 16.1 | 27.4 | 0.00 | 0.08 | 0.00 | 89 | 1011.8 |
| 20260504171601 | 15 | 2 | 16.1 | 27.4 | 0.00 | 0.08 | 0.00 | 90 | 1011.9 |
| 20260504171101 | 15 | 5 | 16.1 | 27.4 | 0.00 | 0.08 | 0.00 | 89 | 1011.8 |
| 20260504170856 | 15 | 6 | 20.9 | 30.6 | 0.00 | 0.13 | 0.00 | 89 | 1011.6 |
| 20260504170852 | 15 | 15 | 17.7 | 30.6 | 0.00 | 0.10 | 0.00 | 89 | 1011.8 |
| 20260504151056 | 18 | 3 | 3.2 | 8.0 | 0.00 | 0.18 | 0.00 | 74 | 1011.7 |
| 20260504150556 | 18 | 349 | 3.2 | 8.0 | 0.00 | 0.18 | 0.00 | 74 | 1011.7 |
| 20260504141053 | 17 | 328 | 3.2 | 4.8 | 0.00 | 0.25 | 0.00 | 74 | 1012.2 |
| 20260504140550 | 17 | 19 | 3.2 | 6.4 | 0.00 | 0.25 | 0.00 | 74 | 1012.3 |
| 20260504130545 | 17 | 346 | 1.6 | 6.4 | 0.00 | 0.25 | 0.00 | 84 | 1012.4 |
| 20260504130314 | 16 | 287 | 3.2 | 6.4 | 0.00 | 0.25 | 0.00 | 85 | 1012.4 |
| 20260504110539 | 17 | 339 | 6.4 | 9.7 | 0.00 | 0.43 | 0.00 | 81 | 1012.7 |
| 20260504100538 | 16 | 19 | 1.6 | 6.4 | 0.00 | 0.64 | 0.00 | 83 | 1012.9 |
| 20260504081535 | 14 | 144 | 1.6 | 4.8 | 0.00 | 0.69 | 0.00 | 99 | 1012.6 |
| 20260504081037 | 14 | 0 | 1.6 | 4.8 | 0.00 | 0.69 | 0.00 | 100 | 1012.6 |
| 20260504080534 | 14 | 170 | 1.6 | 4.8 | 0.00 | 0.69 | 0.00 | 99 | 1012.6 |
| 20260504080304 | 13 | 0 | 1.6 | 4.8 | 0.00 | 0.69 | 0.00 | 99 | 1012.5 |